[[{"header":{"parameterUnit":"m.s-1","parameterCategory":1,"la1":30.2991,"la2":30.254,"lo1":-89.0895,"lo2":-89.0444,"dy":0.0017,"dx":0.0017,"nx":28,"ny":28,"refTime":"2024-07-31T21:00:00:Z","depth":0,"parameterNumber":2,"parameterNumberName":"U-component_of_WINDS"},"data":[0,0,0,0,0,0,0,0,0,0,0,0,0,0,0,0,0,0,0,0,0,0,0,0,0,0,0,0,0,0,0,0,0,0,0,0,0,0,0,0,0,0,0,0,0,0,0,0,0,0,0,0,0,0,0,0,0,0,2.045,2.0451,0,2.0506,2.0507,2.0507,2.0489,2.0488,2.0486,2.0485,2.0544,2.0547,2.055,0,0,0,0,0,0,0,0,0,0,0,0,0,2.0331,2.0334,2.045,2.0451,2.0451,2.0506,2.0507,2.0507,2.0489,2.0488,2.0486,2.0485,2.0544,2.0547,2.055,0,0,0,0,0,0,0,0,0,0,0,0,0,2.0385,2.0334,2.045,2.0449,2.0449,2.0506,2.0507,2.0508,2.0489,2.0487,2.0486,2.0484,2.0542,2.0546,2.055,2.0612,0,0,2.0563,2.0565,0,0,0,0,0,0,0,0,2.0382,2.0389,2.0448,2.0449,2.045,2.0488,2.0486,2.0543,2.049,2.0474,2.0485,2.0483,2.0527,2.0533,2.0547,2.0615,2.0617,2.0563,2.0566,2.0567,2.0569,0,0,0,0,0,0,0,2.0378,2.0387,2.0472,2.0449,2.045,2.0447,2.0452,2.0497,2.051,2.0475,2.0474,2.0481,2.0527,2.0543,2.0548,2.0618,2.0563,2.0567,2.0569,2.0571,2.0743,2.0745,0,0,0,0,0,0,2.0374,2.0384,2.047,2.0474,2.041,2.045,2.0457,2.0478,2.051,2.0513,2.0482,2.048,2.0537,2.0544,2.055,2.0627,2.0567,2.0571,2.0574,2.074,2.0743,2.0745,0,0,0,0,0,0,2.0371,2.0381,2.0468,2.0429,2.0439,2.0454,2.0478,2.048,2.0496,2.0515,2.0518,2.0496,2.0536,2.0545,2.0597,2.0629,2.0573,2.0577,2.0738,2.0741,2.0744,2.0779,0,0,0,0,0,0,2.0368,2.0381,2.0403,2.0429,2.0441,2.0513,2.048,2.0482,2.0502,2.05,2.0528,2.0532,2.0535,2.0591,2.0601,2.0633,2.058,2.0735,2.0739,2.0743,2.0775,2.0783,2.079,0,0,0,0,0,2.0364,2.041,2.0404,2.0415,2.047,2.0515,2.0522,2.0525,2.0505,2.0529,2.0542,2.0531,2.0623,2.0597,2.0608,2.0642,2.0733,2.0738,2.0743,2.0772,2.0781,2.079,0,0,0,0,0,0,2.0388,2.0414,2.0407,2.0464,2.0487,2.0512,2.0541,2.0534,2.0565,2.0561,2.0564,2.057,2.0625,2.0638,2.0609,2.0705,2.0676,2.0683,2.0694,2.0703,2.071,2.0707,2.0583,0,0,0,0,0,2.0399,2.0433,2.0454,2.0502,2.0514,2.0526,2.0546,2.0546,2.0571,2.0581,2.0597,2.0623,2.0658,2.0681,2.0714,2.0777,2.0784,2.0806,2.0813,2.0819,2.0825,2.0863,2.0873,2.0761,2.0761,2.0761,0,0,2.0424,2.0443,2.0464,2.0508,2.0526,2.0562,2.0534,2.0573,2.0601,2.0587,2.0638,2.0652,2.068,2.0739,2.0766,2.0752,2.0858,2.0825,2.0829,2.0833,2.0869,2.0879,2.0889,2.0764,2.0764,2.0763,0,0,2.0489,2.0505,2.0548,2.0567,2.0596,2.0603,2.0614,2.064,2.0648,2.07,2.0691,2.0724,2.0784,2.0806,2.0825,2.09,2.0892,2.0911,2.0949,2.0985,2.0994,2.1002,2.1032,2.1042,2.0917,2.0917,2.0917,0,2.0516,2.057,2.0571,2.0612,2.0633,2.0621,2.0666,2.0685,2.0723,2.0739,2.0722,2.0799,2.0817,2.0882,2.0901,2.0916,2.093,2.0908,2.0993,2.1001,2.1008,2.1036,2.1047,2.0919,2.0919,2.0919,2.0919,0,2.0604,2.0641,2.0673,2.071,2.0734,2.0777,2.0786,2.0811,2.081,2.082,2.0874,2.0896,2.0935,2.095,2.0948,2.1016,2.1007,2.0991,2.0963,2.1021,2.1048,2.1058,2.0923,2.0922,2.0921,2.0921,0,0,2.0685,2.0723,2.0735,2.0753,2.0785,2.0814,2.0857,2.0895,2.0918,2.0944,2.0982,2.1034,2.1021,2.1043,2.1044,2.1076,2.1138,2.1057,2.1058,2.1073,2.1216,2.1229,2.1241,2.1132,2.1134,2.1136,2.1215,0,2.0753,2.0828,2.0832,2.0901,2.0937,2.0928,2.0967,2.0991,2.1002,2.1036,2.1048,2.1086,2.1064,2.1078,2.1109,2.1124,2.1167,2.1118,2.117,2.1171,2.1164,2.1255,2.1268,2.1341,2.1225,2.1227,2.1228,0,2.0843,2.0874,2.0947,2.0976,2.0991,2.1025,2.1061,2.1093,2.1121,2.1127,2.1152,2.115,2.1196,2.1165,2.1231,2.1197,2.1219,2.123,2.1233,2.1239,2.1204,2.1266,2.1364,2.1376,2.1244,2.1243,2.1241,0,2.0898,2.0957,2.1009,2.1025,2.1059,2.1083,2.1099,2.1125,2.1149,2.1181,2.1197,2.1234,2.1255,2.1284,2.1293,2.1269,2.136,2.1328,2.1368,2.1368,2.1388,2.1387,2.1494,2.1399,2.1399,2.1398,2.1398,0,2.0976,2.1021,2.1035,2.1067,2.1119,2.1123,2.1174,2.1188,2.1213,2.1249,2.1243,2.1277,2.1286,2.1322,2.1329,2.1384,2.1393,2.1401,2.1402,2.1402,2.1402,2.1418,2.1414,2.1401,2.1401,2.14,2.14,0,2.1046,2.1056,2.1113,2.1141,2.1149,2.1187,2.1211,2.1243,2.1254,2.13,2.1311,2.1329,2.1372,2.1383,2.1434,2.1439,2.1505,2.15,2.1495,2.1496,2.1535,2.1532,2.1657,2.1675,2.1567,2.1568,2.1568,0,2.1096,2.1131,2.1163,2.1187,2.1204,2.1242,2.1266,2.1272,2.1298,2.1334,2.1363,2.1405,2.1439,2.1509,2.1527,2.1567,2.1565,2.1606,2.1571,2.1571,2.1569,2.1567,2.1572,2.1613,2.1614,2.1615,2.1616,0,2.1184,2.1188,2.1223,2.126,2.1289,2.1319,2.1348,2.1368,2.1378,2.1408,2.1452,2.1478,2.1531,2.1574,2.1615,2.1633,2.1628,2.1627,2.1639,2.164,2.1636,2.1641,2.1516,2.1624,2.1623,2.1623,2.1622,2.1622,2.1247,2.1279,2.1307,2.1347,2.1369,2.1397,2.1429,2.1444,2.1481,2.1524,2.1526,2.1575,2.1605,2.1659,2.1679,2.1718,2.1706,2.1722,2.1727,2.1731,2.1736,2.1629,2.1725,2.1725,2.1725,2.1725,2.1724,0,2.1337,2.1355,2.1392,2.1433,2.1464,2.1455,2.1487,2.1515,2.1558,2.1586,2.162,2.1672,2.1714,2.1736,2.1779,2.1806,2.1805,2.1817,2.1817,2.1821,2.1743,2.173,2.1818,2.1818,2.1818,2.1818,2.1818,2.1818,2.1388,2.1442,2.145,2.1516,2.1534,2.1581,2.1601,2.1627,2.165,2.1708,2.1743,2.1757,2.1784,2.1828,2.1868,2.1873,2.189,2.1905,2.1909,2.1836,2.1826,2.1817,2.1805,2.1908,2.1908,2.1984,2.1985,2.1986]},{"header":{"parameterUnit":"m.s-1","parameterCategory":1,"la1":30.2991,"la2":30.254,"lo1":-89.0895,"lo2":-89.0444,"dy":0.0017,"dx":0.0017,"nx":28,"ny":28,"refTime":"2024-07-31T21:00:00:Z","depth":0,"parameterNumber":3,"parameterNumberName":"V-component_of_WINDS"},"data":[0,0,0,0,0,0,0,0,0,0,0,0,0,0,0,0,0,0,0,0,0,0,0,0,0,0,0,0,0,0,0,0,0,0,0,0,0,0,0,0,0,0,0,0,0,0,0,0,0,0,0,0,0,0,0,0,0,0,-1.7647,-1.7647,0,-1.7634,-1.7634,-1.7634,-1.7647,-1.7647,-1.7648,-1.7648,-1.7633,-1.7632,-1.7631,0,0,0,0,0,0,0,0,0,0,0,0,0,-1.7682,-1.7682,-1.7647,-1.7647,-1.7647,-1.7634,-1.7634,-1.7634,-1.7647,-1.7647,-1.7648,-1.7648,-1.7633,-1.7632,-1.7631,0,0,0,0,0,0,0,0,0,0,0,0,0,-1.7668,-1.7681,-1.7647,-1.7652,-1.7652,-1.7634,-1.7634,-1.7634,-1.7646,-1.7647,-1.7648,-1.7649,-1.7633,-1.7632,-1.7631,-1.7607,0,0,-1.7627,-1.7626,0,0,0,0,0,0,0,0,-1.7669,-1.7667,-1.7651,-1.7651,-1.7652,-1.7643,-1.7641,-1.7625,-1.7646,-1.7648,-1.7648,-1.7649,-1.7635,-1.7634,-1.763,-1.7607,-1.7606,-1.7627,-1.7626,-1.7625,-1.7625,0,0,0,0,0,0,0,-1.767,-1.7667,-1.7642,-1.7651,-1.7651,-1.7654,-1.7653,-1.7638,-1.7638,-1.7648,-1.7649,-1.7648,-1.7636,-1.7631,-1.763,-1.7606,-1.7627,-1.7626,-1.7625,-1.7624,-1.7565,-1.7564,0,0,0,0,0,0,-1.767,-1.7668,-1.7642,-1.7642,-1.7662,-1.7653,-1.7652,-1.7645,-1.7638,-1.7638,-1.7647,-1.7648,-1.7633,-1.7631,-1.7629,-1.7603,-1.7625,-1.7624,-1.7623,-1.7566,-1.7565,-1.7564,0,0,0,0,0,0,-1.7671,-1.7668,-1.7643,-1.7655,-1.7652,-1.7652,-1.7644,-1.7644,-1.764,-1.7637,-1.7637,-1.7642,-1.7633,-1.7631,-1.7613,-1.7602,-1.7623,-1.7622,-1.7567,-1.7565,-1.7564,-1.7548,0,0,0,0,0,0,-1.7672,-1.7668,-1.7659,-1.7655,-1.7651,-1.7627,-1.7643,-1.7643,-1.7638,-1.7639,-1.7633,-1.7632,-1.7634,-1.7615,-1.7612,-1.7601,-1.7621,-1.7568,-1.7566,-1.7565,-1.755,-1.7547,-1.7544,0,0,0,0,0,-1.7673,-1.7654,-1.7659,-1.7655,-1.764,-1.7627,-1.7625,-1.7628,-1.7637,-1.7628,-1.7626,-1.7632,-1.7604,-1.7613,-1.761,-1.7598,-1.7568,-1.7567,-1.7565,-1.7551,-1.7548,-1.7544,0,0,0,0,0,0,-1.7656,-1.7654,-1.7658,-1.7637,-1.7632,-1.7629,-1.7618,-1.7623,-1.7615,-1.7616,-1.762,-1.7618,-1.76,-1.7597,-1.7608,-1.7576,-1.7588,-1.7585,-1.7578,-1.7575,-1.7572,-1.7573,-1.762,0,0,0,0,0,-1.765,-1.764,-1.7638,-1.762,-1.7617,-1.7618,-1.7612,-1.7615,-1.7609,-1.7607,-1.7604,-1.7598,-1.7588,-1.7581,-1.7572,-1.755,-1.7549,-1.754,-1.7537,-1.7535,-1.7533,-1.7523,-1.7519,-1.7558,-1.7558,-1.7558,0,0,-1.7637,-1.7634,-1.7627,-1.7616,-1.7612,-1.7602,-1.7616,-1.7603,-1.7596,-1.7605,-1.7589,-1.7587,-1.758,-1.7561,-1.7552,-1.7558,-1.7522,-1.7533,-1.7531,-1.753,-1.752,-1.7517,-1.7513,-1.7557,-1.7557,-1.7557,0,0,-1.7608,-1.7605,-1.759,-1.7587,-1.7582,-1.7583,-1.7579,-1.7575,-1.7575,-1.7559,-1.7566,-1.7557,-1.7539,-1.7535,-1.753,-1.7502,-1.7508,-1.7499,-1.7484,-1.7474,-1.7471,-1.7468,-1.746,-1.7456,-1.7497,-1.7497,-1.7497,0,-1.7592,-1.7577,-1.7581,-1.7569,-1.7565,-1.7574,-1.756,-1.7556,-1.7547,-1.7544,-1.7551,-1.753,-1.7526,-1.7507,-1.7501,-1.7496,-1.7493,-1.75,-1.7471,-1.7469,-1.7466,-1.7458,-1.7454,-1.7496,-1.7496,-1.7496,-1.7496,0,-1.7558,-1.7548,-1.7536,-1.753,-1.7524,-1.7511,-1.7514,-1.7507,-1.7511,-1.7511,-1.7496,-1.7492,-1.7483,-1.7478,-1.7481,-1.746,-1.7464,-1.7471,-1.7483,-1.7461,-1.7454,-1.7451,-1.7494,-1.7495,-1.7495,-1.7495,0,0,-1.7517,-1.7515,-1.7511,-1.7509,-1.7505,-1.7497,-1.7484,-1.7476,-1.7471,-1.7466,-1.7456,-1.7442,-1.7449,-1.7444,-1.7446,-1.7438,-1.7418,-1.7446,-1.7446,-1.7442,-1.7396,-1.7391,-1.7387,-1.7422,-1.7421,-1.7421,-1.7397,0,-1.7489,-1.7468,-1.7473,-1.7453,-1.7444,-1.7454,-1.7443,-1.744,-1.744,-1.7433,-1.7433,-1.7424,-1.7433,-1.743,-1.7422,-1.7422,-1.7409,-1.7424,-1.7413,-1.7413,-1.7415,-1.7383,-1.7378,-1.7355,-1.7394,-1.7393,-1.7393,0,-1.7453,-1.7448,-1.7427,-1.7427,-1.7423,-1.7414,-1.7408,-1.74,-1.7397,-1.7398,-1.7394,-1.7399,-1.7387,-1.7399,-1.7384,-1.7394,-1.739,-1.739,-1.7389,-1.7388,-1.7402,-1.7383,-1.7348,-1.7345,-1.7388,-1.7388,-1.7389,0,-1.7427,-1.7414,-1.7401,-1.7399,-1.7397,-1.7391,-1.739,-1.7388,-1.7383,-1.7378,-1.7376,-1.7369,-1.7365,-1.736,-1.7363,-1.7371,-1.7347,-1.7359,-1.7348,-1.7348,-1.7343,-1.7343,-1.7308,-1.7339,-1.7339,-1.7339,-1.7339,0,-1.7395,-1.7382,-1.7389,-1.7381,-1.7367,-1.7373,-1.736,-1.736,-1.7358,-1.735,-1.7358,-1.735,-1.7355,-1.7348,-1.735,-1.7338,-1.7336,-1.7337,-1.7338,-1.7336,-1.7336,-1.7334,-1.7336,-1.7338,-1.7339,-1.7339,-1.7339,0,-1.7363,-1.7367,-1.7354,-1.7354,-1.7354,-1.7344,-1.7345,-1.7338,-1.7339,-1.733,-1.7328,-1.733,-1.7323,-1.7326,-1.7317,-1.7319,-1.7303,-1.7306,-1.7305,-1.7306,-1.7295,-1.7296,-1.7257,-1.7253,-1.7286,-1.7286,-1.7286,0,-1.7343,-1.7334,-1.7334,-1.733,-1.7329,-1.7322,-1.7319,-1.7324,-1.732,-1.7317,-1.731,-1.7304,-1.7298,-1.7286,-1.7287,-1.7281,-1.7284,-1.7271,-1.7283,-1.7282,-1.7285,-1.7286,-1.7285,-1.7268,-1.7268,-1.7267,-1.7267,0,-1.7308,-1.7311,-1.7305,-1.7301,-1.7297,-1.7294,-1.7291,-1.7287,-1.7293,-1.7288,-1.7281,-1.7277,-1.7269,-1.7263,-1.7258,-1.7257,-1.7263,-1.7264,-1.7261,-1.726,-1.726,-1.7261,-1.7299,-1.7264,-1.7265,-1.7265,-1.7265,-1.7265,-1.7282,-1.7275,-1.7275,-1.7269,-1.7268,-1.7266,-1.726,-1.7262,-1.7256,-1.7251,-1.7255,-1.7247,-1.7245,-1.724,-1.7238,-1.7232,-1.7237,-1.7233,-1.7232,-1.7231,-1.723,-1.7261,-1.7231,-1.7231,-1.7231,-1.7231,-1.7231,0,-1.7248,-1.7249,-1.7243,-1.724,-1.7236,-1.7244,-1.7242,-1.7238,-1.7231,-1.7229,-1.7225,-1.7218,-1.7212,-1.7214,-1.7209,-1.7204,-1.7207,-1.7202,-1.7203,-1.7203,-1.7225,-1.7229,-1.72,-1.72,-1.72,-1.72,-1.72,-1.72,-1.7229,-1.7219,-1.7222,-1.7211,-1.7212,-1.7205,-1.7204,-1.7202,-1.7201,-1.7193,-1.7189,-1.719,-1.7191,-1.7186,-1.7181,-1.7182,-1.718,-1.7175,-1.7177,-1.7198,-1.7201,-1.7204,-1.7207,-1.7174,-1.7174,-1.7155,-1.7155,-1.7154]}]]